RRR110 EGVN-EGVN

Flight info

Callsign RRR110
Flight time 0h 34m
Altitude 9000
Route GST
Aircraft A332/H-SDE3GHIJ2J3J5M1RVWXY/LB2D1

Departure

Time 2026-04-22 18:54
Airport RAF Brize Norton (EGVN)

Arrival

Time 2026-04-22 19:28
Airport RAF Brize Norton (EGVN)
Time Latitude Longitude Altitude Speed Heading
2026-04-22 18:46 51.74642 -1.58963 268 ft 0 kts 162°
2026-04-22 18:48 51.74640 -1.58962 268 ft 1 kts 162°
2026-04-22 18:48 51.74611 -1.58947 268 ft 8 kts 162°
2026-04-22 18:48 51.74571 -1.58968 268 ft 5 kts 236°
2026-04-22 18:49 51.74554 -1.59031 268 ft 7 kts 252°
2026-04-22 18:49 51.74538 -1.59117 268 ft 9 kts 253°
2026-04-22 18:49 51.74533 -1.59148 268 ft 0 kts 253°
2026-04-22 18:51 51.74524 -1.59196 268 ft 11 kts 253°
2026-04-22 18:51 51.74494 -1.59357 268 ft 19 kts 253°
2026-04-22 18:51 51.74451 -1.59588 268 ft 22 kts 253°
2026-04-22 18:52 51.74422 -1.59808 268 ft 7 kts 282°
2026-04-22 18:52 51.74441 -1.59876 268 ft 6 kts 308°
2026-04-22 18:52 51.74468 -1.59953 268 ft 12 kts 298°
2026-04-22 18:52 51.74530 -1.60056 268 ft 13 kts 335°
2026-04-22 18:53 51.74610 -1.60100 268 ft 11 kts 343°
2026-04-22 18:53 51.74676 -1.60062 267 ft 9 kts 54°
2026-04-22 18:53 51.74686 -1.59994 266 ft 8 kts 75°
2026-04-22 18:53 51.74750 -1.59648 265 ft 66 kts 73°
2026-04-22 18:54 51.74942 -1.58600 270 ft 128 kts 73°
2026-04-22 18:54 51.75246 -1.56941 400 ft 175 kts 73°
2026-04-22 18:54 51.75733 -1.54962 940 ft 205 kts 53°
2026-04-22 18:54 51.77112 -1.53865 1553 ft 241 kts 19°
2026-04-22 18:55 51.78818 -1.53271 2119 ft 262 kts 16°
2026-04-22 18:55 51.80698 -1.52754 2490 ft 287 kts 14°
2026-04-22 18:55 51.82765 -1.52777 3158 ft 307 kts 352°
2026-04-22 18:55 51.84832 -1.53401 4311 ft 297 kts
2026-04-22 18:56 51.86847 -1.53164 5558 ft 284 kts 13°
2026-04-22 18:56 51.88781 -1.52590 6698 ft 283 kts 15°
2026-04-22 18:56 51.90722 -1.51942 7620 ft 287 kts 15°
2026-04-22 18:56 51.92690 -1.51270 8598 ft 290 kts 15°
2026-04-22 18:57 51.94673 -1.50584 9538 ft 292 kts 15°
2026-04-22 18:57 51.96700 -1.50189 10500 ft 296 kts
2026-04-22 18:57 51.98769 -1.50190 11434 ft 297 kts
2026-04-22 18:57 52.00842 -1.50250 12225 ft 297 kts
2026-04-22 18:58 52.02853 -1.50311 12325 ft 290 kts
2026-04-22 18:58 52.04892 -1.50429 11812 ft 299 kts 355°
2026-04-22 18:58 52.06899 -1.51497 11223 ft 309 kts 331°
2026-04-22 18:58 52.08641 -1.53565 10782 ft 311 kts 315°
2026-04-22 18:59 52.09832 -1.56444 10418 ft 306 kts 289°
2026-04-22 18:59 52.10187 -1.59792 10011 ft 299 kts 263°
2026-04-22 18:59 52.09736 -1.63046 9568 ft 294 kts 246°
2026-04-22 18:59 52.08987 -1.66123 9180 ft 291 kts 243°
2026-04-22 19:00 52.08472 -1.68141 8908 ft 290 kts 243°
2026-04-22 19:00 52.07429 -1.72169 8414 ft 288 kts 243°
2026-04-22 19:00 52.07255 -1.72844 8327 ft 288 kts 243°
2026-04-22 19:17 52.06467 -1.75728 7952 ft 284 kts 237°
2026-04-22 19:17 52.05186 -1.78065 7566 ft 274 kts 211°
2026-04-22 19:17 52.03542 -1.79544 7212 ft 268 kts 202°
2026-04-22 19:18 52.01848 -1.80800 6830 ft 267 kts 200°
2026-04-22 19:18 52.00154 -1.82034 6456 ft 266 kts 200°
2026-04-22 19:18 51.98470 -1.83265 6058 ft 265 kts 200°
2026-04-22 19:18 51.96789 -1.84509 5662 ft 265 kts 200°
2026-04-22 19:19 51.95117 -1.85768 5282 ft 264 kts 200°
2026-04-22 19:19 51.93452 -1.87029 4843 ft 265 kts 200°
2026-04-22 19:19 51.91788 -1.88297 4457 ft 264 kts 200°
2026-04-22 19:19 51.90134 -1.89570 4090 ft 262 kts 200°
2026-04-22 19:20 51.88489 -1.90850 3726 ft 262 kts 200°
2026-04-22 19:20 51.86853 -1.92138 3319 ft 263 kts 200°
2026-04-22 19:20 51.85194 -1.93413 2913 ft 262 kts 197°
2026-04-22 19:20 51.83480 -1.94401 2475 ft 261 kts 191°
2026-04-22 19:21 51.81753 -1.95248 2310 ft 258 kts 190°
2026-04-22 19:21 51.80026 -1.95830 2289 ft 244 kts 177°
2026-04-22 19:21 51.78440 -1.95604 2309 ft 216 kts 158°
2026-04-22 19:21 51.77167 -1.94611 2302 ft 192 kts 137°
2026-04-22 19:22 51.76294 -1.93176 2288 ft 173 kts 124°
2026-04-22 19:22 51.75605 -1.91662 2282 ft 157 kts 121°
2026-04-22 19:22 51.75000 -1.90247 2299 ft 151 kts 121°
2026-04-22 19:22 51.74414 -1.88877 2304 ft 150 kts 121°
2026-04-22 19:23 51.73821 -1.87498 2306 ft 150 kts 121°
2026-04-22 19:23 51.73225 -1.86123 2292 ft 150 kts 121°
2026-04-22 19:23 51.72627 -1.84749 2298 ft 150 kts 121°
2026-04-22 19:23 51.72029 -1.83380 2287 ft 149 kts 121°
2026-04-22 19:24 51.71431 -1.82004 2297 ft 149 kts 120°
2026-04-22 19:24 51.71160 -1.80442 2295 ft 147 kts 92°
2026-04-22 19:24 51.71277 -1.78801 2299 ft 148 kts 79°
2026-04-22 19:24 51.71532 -1.77201 2297 ft 146 kts 77°
2026-04-22 19:25 51.71717 -1.76138 2294 ft 145 kts 77°
2026-04-22 19:25 51.72077 -1.74183 2225 ft 132 kts 76°
2026-04-22 19:25 51.72333 -1.72777 2038 ft 129 kts 77°
2026-04-22 19:25 51.72580 -1.71425 1845 ft 122 kts 76°
2026-04-22 19:26 51.72811 -1.70174 1658 ft 111 kts 77°
2026-04-22 19:26 51.73030 -1.68980 1522 ft 112 kts 75°
2026-04-22 19:26 51.73254 -1.67760 1364 ft 114 kts 75°
2026-04-22 19:26 51.73480 -1.66535 1178 ft 113 kts 77°
2026-04-22 19:27 51.73706 -1.65303 1016 ft 116 kts 75°
2026-04-22 19:27 51.73936 -1.64062 829 ft 115 kts 77°
2026-04-22 19:27 51.74166 -1.62809 675 ft 118 kts 77°
2026-04-22 19:27 51.74403 -1.61533 448 ft 119 kts 75°
2026-04-22 19:28 51.74641 -1.60265 294 ft 117 kts 75°
2026-04-22 19:28 51.74837 -1.59177 271 ft 67 kts 73°
2026-04-22 19:28 51.74918 -1.58736 270 ft 36 kts 74°
2026-04-22 19:28 51.74989 -1.58351 268 ft 24 kts 73°
2026-04-22 19:29 51.75016 -1.58207 268 ft 11 kts 73°
2026-04-22 19:29 51.75067 -1.58121 268 ft 11 kts 32°
2026-04-22 19:29 51.75137 -1.58060 269 ft 12 kts 28°
2026-04-22 19:29 51.75220 -1.57988 268 ft 15 kts 28°
2026-04-22 19:30 51.75282 -1.57934 268 ft 16 kts 28°
2026-04-22 19:30 51.75427 -1.57813 268 ft 20 kts 27°
2026-04-22 19:30 51.75525 -1.57727 268 ft 10 kts 27°
2026-04-22 19:30 51.75588 -1.57735 268 ft 9 kts 324°
2026-04-22 19:31 51.75632 -1.57802 268 ft 0 kts 315°